KINEIS-3D

Last updated on Wed Oct 22 2025 00:02:42 GMT+0000 (Coordinated Universal Time)

1 61221U 24172B 25294.52307140 .00004680 00000+0 74804-3 0 9995 2 61221 98.0297 22.2691 0001729 151.0255 209.1049 14.72296173 58234
UTC large
Height (km)
Speed (km/s)
/
Latitude / Longitude
Inclination (degrees)
Orbital Period (minutes)
Azimuth
Elevation
Range (km)
Doppler Factor

Next 0 passes for location: London (51.5072 / 0.1276)

Sorry there are no passes over London.